Helicity
51 38 32 29 25 21 24 24 17 13 16 14 13 7 12 22 -2 19 38 44 32 17 25 35 58 48 60 90 49 29 81 117 93 97 66 78 64 58 32 61 64 41 57 64 69
43 40 46 43 38 36 28 19 20 18 17 12 12 7 12 17 38 22 31 23 12 4 35 48 53 44 56 40 27 51 109 119 72 63 67 62 70 54 65 57 45 145 71 -2 -1
52 47 47 37 37 48 40 27 12 2 14 13 11 9 7 13 34 18 24 16 6 11 45 46 47 44 53 30 23 54 88 52 38 26 35 57 70 34 18 31 29 75 46 9 5
43 40 37 35 24 29 38 27 17 -0 -9 -0 7 7 7 18 60 21 10 12 4 12 30 41 39 44 41 47 20 57 43 38 40 26 41 41 33 30 -27 -6 -18 -35 -51 -30 -24
35 36 38 30 19 26 36 34 19 3 -2 2 8 6 16 35 23 11 3 10 25 31 50 47 54 51 51 39 32 52 42 41 57 92 43 39 10 31 -13 -40 -64 -44 -10 17 17
42 57 63 47 26 24 17 33 36 -0 4 9 16 8 19 53 3 3 11 26 32 43 46 44 41 46 62 50 55 43 71 93 63 60 19 45 47 36 8 -25 -13 -19 6 -3 1
33 53 77 68 56 30 12 34 47 21 14 22 11 9 62 27 7 4 20 37 28 47 62 48 36 48 50 61 19 61 112 90 65 14 30 54 36 25 -11 -7 -6 -19 -38 -31 -12
21 35 56 72 73 42 10 55 70 27 18 6 -6 -0 18 5 19 11 21 34 26 45 52 46 38 53 47 38 38 66 71 82 76 47 10 24 -8 37 42 21 -24 -53 -35 -10 38
20 36 34 61 53 35 21 82 64 21 13 3 -4 7 22 12 22 21 44 40 38 53 42 47 47 46 48 61 59 65 70 68 45 47 44 21 17 65 56 7 -17 -26 -24 -1 58
9 40 35 40 45 46 46 66 21 21 -8 5 4 20 21 34 26 25 48 40 54 53 48 53 61 51 49 58 79 63 59 60 68 52 81 89 92 80 62 34 21 -13 -8 -8 52
13 38 44 26 46 34 47 61 6 -13 22 29 36 37 41 27 34 23 48 44 54 65 62 52 77 54 38 58 63 59 66 63 51 71 100 116 107 85 62 58 51 41 35 -19 42
1 22 42 43 63 -9 17 44 24 -3 37 28 25 28 27 29 46 38 34 62 74 82 63 72 92 49 51 57 59 65 64 62 38 49 80 117 117 115 77 59 39 37 27 43 39
1 8 41 36 92 56 -34 33 12 -5 22 18 29 32 33 38 40 46 46 57 81 86 79 100 68 65 65 55 50 48 68 77 88 51 80 88 80 90 78 59 49 46 20 24 17
-2 -6 19 35 82 78 43 44 16 3 106 28 23 40 46 36 45 43 43 59 71 88 86 76 73 70 65 68 91 70 80 92 90 124 114 73 69 77 97 56 49 46 25 22 38
-2 -19 -8 38 83 75 69 53 35 25 134 62 21 38 20 57 44 34 36 51 66 58 89 86 72 75 81 78 102 71 82 87 95 110 147 123 136 73 116 68 44 48 37 34 24
-6 -21 1 57 74 87 63 52 43 109 111 83 45 52 73 60 39 19 40 43 40 65 63 59 51 66 72 69 87 58 98 121 124 124 148 106 162 88 112 86 76 56 61 44 33
10 11 51 70 83 77 65 72 100 123 84 85 65 59 62 59 64 67 44 41 30 47 57 40 53 68 66 72 81 77 106 136 173 182 157 124 179 115 150 101 78 67 71 60 38
22 27 53 69 66 78 78 92 132 86 88 88 79 67 87 57 70 48 61 51 27 44 85 70 56 79 68 82 90 92 103 157 192 227 216 182 227 151 98 120 106 100 78 78 65
14 35 61 68 59 74 93 100 82 81 72 70 71 116 84 68 62 59 65 69 43 47 60 80 63 59 79 99 112 110 112 109 169 216 253 189 134 140 129 140 95 107 71 76 78
36 34 47 43 52 70 94 76 79 68 60 67 90 101 94 59 63 63 64 61 70 63 78 98 79 71 75 112 120 110 104 122 154 196 240 226 180 217 160 64 49 93 51 83 85
35 50 40 21 51 82 86 66 72 65 60 74 83 101 104 66 70 59 76 74 76 78 97 126 125 86 112 148 130 131 112 157 162 215 271 272 254 199 153 99 51 76 76 94 108
32 46 34 31 62 64 70 61 61 72 68 82 91 95 95 78 75 63 79 80 77 88 94 99 187 136 145 117 95 159 133 183 226 213 270 334 415 135 76 116 178 122 96 132 129
35 24 28 37 75 54 48 69 69 73 79 79 82 88 85 74 67 76 57 81 73 92 110 130 169 182 77 126 190 228 193 208 246 360 385 324 297 229 170 249 216 206 164 178 147
39 45 37 64 39 74 82 70 66 67 75 72 74 84 84 76 78 72 105 82 90 91 120 172 239 243 255 212 199 202 215 243 247 321 343 480 329 259 205 169 257 249 223 248 153
57 55 55 79 79 89 74 78 82 90 80 75 79 78 89 87 90 77 86 93 82 104 134 174 222 257 197 180 191 197 193 212 268 229 285 236 231 296 255 258 284 348 347 313 217
69 77 82 82 73 87 87 82 97 93 95 93 98 103 105 109 109 78 125 130 111 137 115 154 188 211 204 194 121 168 180 135 167 163 221 184 140 108 117 217 354 378 379 342 248
53 77 98 84 90 98 82 97 114 114 89 87 97 103 101 91 105 100 136 185 216 257 205 183 186 187 235 177 135 118 62 125 200 210 219 220 191 150 144 140 237 293 348 323 263
Wind_Speed
4 8 12 13 9 9 10 11 11 12 14 15 15 17 19 22 32 41 46 34 29 20 31 34 43 42 44 43 41 35 32 28 26 32 37 43 40 42 38 44 43 52 48 69 80
6 9 11 9 8 5 5 9 11 12 13 16 18 21 24 29 39 51 34 32 31 33 43 52 49 47 46 43 40 39 37 32 32 32 35 40 40 41 43 50 55 71 69 75 81
7 11 12 11 7 7 6 2 8 12 16 19 22 25 27 30 34 35 32 32 31 35 39 43 43 46 50 46 43 41 40 35 35 34 31 33 39 43 50 53 62 77 86 89 89
19 20 21 20 15 14 14 6 7 12 17 22 27 31 32 34 34 31 28 27 31 38 43 48 47 46 46 45 41 44 41 36 33 31 31 32 31 39 53 58 70 74 77 78 81
31 33 33 28 21 18 17 4 21 27 36 35 36 36 35 42 40 31 30 36 37 38 49 44 48 43 41 41 41 41 37 37 37 39 41 39 35 35 54 59 62 69 69 70 71
30 36 40 34 33 33 23 27 44 49 43 40 38 36 36 39 33 36 38 40 45 45 46 48 44 42 40 38 37 35 36 35 34 34 32 34 36 35 58 64 69 71 70 68 69
27 33 37 32 25 21 13 24 41 45 44 40 39 40 47 40 37 40 47 43 43 43 41 42 40 41 35 35 36 35 36 35 31 27 28 30 31 41 59 66 71 70 69 70 71
31 33 37 32 22 26 10 31 37 39 41 39 38 38 40 35 37 42 45 41 42 43 39 39 41 42 39 34 36 31 31 28 32 25 27 22 18 40 56 65 67 72 75 74 73
33 34 38 36 23 28 10 36 36 36 39 36 39 39 38 33 36 35 41 36 34 37 39 36 38 40 40 34 32 34 29 24 28 27 22 19 22 39 51 60 68 73 78 77 74
35 33 36 40 24 29 26 33 38 41 38 41 42 40 38 32 29 32 35 36 35 32 31 35 34 33 37 38 36 29 30 26 21 30 27 23 23 40 52 56 65 70 75 78 77
37 34 33 38 10 36 44 39 41 45 56 51 46 45 37 29 31 37 38 37 37 39 36 33 35 41 32 29 28 26 24 22 22 27 32 28 24 31 45 53 60 66 69 78 74
41 39 36 30 31 32 60 53 43 37 49 44 41 39 33 36 37 43 42 40 41 42 36 36 38 31 30 32 30 28 24 24 24 30 31 30 26 26 37 44 52 59 64 71 73
35 41 42 32 42 54 69 54 33 34 40 45 42 44 42 41 40 41 48 42 44 44 43 40 36 35 32 32 36 31 25 27 27 31 29 33 32 25 28 39 48 54 57 63 69
36 45 46 24 44 49 59 44 35 33 39 42 45 43 43 40 43 40 45 44 44 44 43 39 37 37 35 37 38 40 30 27 27 31 31 32 35 29 25 33 44 50 56 60 65
23 43 49 57 40 52 46 41 35 34 42 39 40 36 41 47 40 48 44 45 46 44 43 45 43 41 43 42 37 33 37 30 28 24 32 29 31 32 25 26 37 43 49 55 58
23 25 33 42 41 43 42 38 35 42 43 40 38 45 45 49 45 45 50 49 41 44 46 44 37 36 41 40 36 34 38 38 35 31 36 32 23 35 25 23 30 36 42 48 52
43 30 40 39 44 39 39 38 43 45 39 40 39 42 43 50 47 55 54 55 55 54 60 51 43 39 39 48 44 49 48 56 53 51 45 37 29 33 26 24 27 30 37 42 47
60 47 41 41 40 42 41 44 47 39 38 36 40 40 44 55 48 55 50 49 52 54 53 60 55 50 46 48 49 46 47 55 63 57 49 39 33 40 27 20 24 29 32 37 43
59 46 41 43 43 43 46 50 43 39 38 42 42 44 44 48 50 54 51 46 48 52 60 57 52 44 40 42 45 47 49 38 42 40 47 36 32 37 26 18 15 22 26 33 37
52 49 43 49 45 43 46 43 40 38 40 42 48 45 49 50 53 57 48 44 46 47 48 48 54 44 40 41 39 38 37 47 45 60 64 42 39 38 29 10 5 10 17 27 32
49 46 44 57 41 45 45 43 42 37 41 44 44 44 45 50 49 49 43 43 42 48 47 46 43 50 46 43 45 39 41 39 39 38 52 57 43 34 35 22 7 2 12 22 27
46 49 48 50 46 43 44 42 39 38 39 40 39 40 42 46 48 47 44 42 43 47 52 45 47 53 53 38 29 29 38 36 46 49 36 42 42 36 35 35 12 4 11 19 24
48 45 44 45 45 47 44 43 38 39 40 43 42 39 41 45 50 44 45 44 45 46 51 46 48 64 62 47 37 37 34 31 37 37 35 42 39 37 38 30 19 12 16 19 21
45 49 46 44 41 45 49 45 44 38 40 38 39 39 44 45 40 45 47 44 47 47 42 39 41 40 52 50 46 41 36 31 30 37 36 32 38 35 36 28 21 19 17 18 21
46 44 43 51 49 46 45 46 46 45 38 38 40 37 42 49 51 44 47 51 52 50 41 40 49 42 37 40 37 37 38 35 31 33 35 42 40 37 33 24 19 18 11 10 12
45 46 44 45 45 46 46 46 46 43 41 43 40 42 40 45 43 54 52 55 53 50 45 44 53 52 52 44 38 41 35 31 32 33 35 38 40 41 38 29 23 16 8 10 9
38 39 44 46 47 50 48 46 47 44 40 35 41 48 48 46 45 44 44 43 41 48 52 48 49 58 61 58 62 59 45 36 39 37 42 48 47 50 47 42 30 21 13 11 13
Wind_Direction
341 329 326 315 295 266 245 230 213 198 191 179 157 144 133 126 92 70 56 67 71 74 68 67 59 58 66 68 69 74 78 87 52 4 340 329 325 328 329 325 322 322 314 308 304
1 345 346 341 336 318 272 237 217 190 176 161 141 128 117 104 73 50 69 65 63 61 52 42 48 54 60 62 64 64 76 80 64 36 5 360 352 338 334 329 322 308 311 313 311
356 345 345 342 347 346 332 188 176 165 145 147 134 129 119 106 80 69 66 62 59 57 55 52 56 56 49 57 59 63 66 73 59 54 34 14 5 8 349 333 332 313 309 310 309
322 324 322 321 313 320 320 269 198 166 148 138 121 115 106 91 73 74 74 68 64 55 50 42 45 45 47 52 62 60 59 61 54 58 48 32 22 359 351 340 323 315 316 317 316
323 323 322 316 310 315 315 103 93 83 66 77 85 91 83 59 61 69 69 59 60 60 43 51 46 47 53 48 51 52 55 54 52 50 54 67 66 38 333 317 315 326 324 325 325
328 327 326 319 313 313 308 72 50 34 43 53 49 59 58 60 66 53 50 49 45 46 45 48 53 49 48 49 50 48 52 60 61 61 70 61 53 42 345 325 335 336 336 329 331
327 327 328 319 315 316 315 81 57 49 46 46 44 52 42 63 51 43 31 39 42 44 50 51 56 55 56 55 49 53 49 50 58 80 56 46 49 28 343 345 352 337 333 329 332
326 327 328 325 313 318 323 77 72 73 70 74 77 69 74 65 55 42 36 40 37 37 48 49 50 51 53 56 46 55 49 48 40 59 43 57 53 15 358 357 349 344 341 344 341
325 326 326 325 312 316 58 73 80 85 88 94 84 81 74 69 64 56 45 51 54 48 44 50 48 52 48 51 49 45 38 44 37 32 46 45 27 9 1 354 349 349 352 349 345
325 326 326 325 313 318 71 86 86 84 92 88 79 71 69 67 67 58 51 51 51 55 59 53 55 57 49 48 40 38 35 36 35 27 16 16 12 358 354 359 357 360 1 354 350
321 324 326 325 326 325 59 76 72 74 60 63 63 62 65 69 68 53 47 50 49 50 48 56 53 37 48 53 46 40 36 28 28 20 9 3 360 360 357 358 3 7 16 358 0
318 321 324 324 74 330 46 45 69 81 57 66 63 60 64 50 48 42 44 46 44 38 46 44 40 47 47 44 38 35 35 32 25 18 7 2 354 3 2 8 11 12 17 14 1
308 317 320 317 62 47 30 47 82 81 57 50 53 44 40 44 49 42 33 40 37 33 33 35 40 38 42 38 29 28 28 28 18 10 4 2 360 5 5 8 12 17 21 25 14
300 312 317 308 50 42 31 49 66 72 46 40 37 37 39 44 39 43 34 37 32 30 31 33 35 36 37 29 27 19 28 14 7 8 4 10 357 2 2 3 6 13 15 23 27
286 305 314 26 43 29 34 42 63 57 30 34 35 42 35 34 35 30 34 29 25 26 29 22 26 29 25 23 24 23 14 8 8 8 1 358 354 2 12 2 0 10 19 20 31
279 288 15 36 42 35 34 46 51 30 28 32 37 25 27 25 28 26 21 24 32 26 24 22 33 37 26 25 29 24 18 15 19 15 2 5 358 355 2 6 359 5 16 16 24
290 284 28 33 24 34 38 40 25 26 29 30 31 26 22 16 18 17 17 17 19 17 12 17 24 30 34 21 25 20 19 9 9 8 3 10 359 339 353 4 3 4 6 12 15
307 10 22 26 27 27 30 24 17 29 31 32 25 24 19 12 15 12 19 17 18 17 13 9 10 15 22 22 16 22 25 15 3 4 359 359 353 353 5 15 6 359 1 7 4
346 9 17 18 18 21 18 12 20 26 27 21 21 21 19 16 10 8 11 16 15 15 10 7 6 15 23 23 21 19 18 26 13 11 5 11 10 0 2 0 8 1 1 359 1
355 357 7 7 11 16 12 16 20 25 24 20 13 18 11 10 8 3 8 11 10 14 15 10 2 14 19 19 25 22 26 16 18 5 2 8 0 354 358 354 8 2 2 357 355
354 357 7 355 16 9 8 10 13 21 21 14 12 10 11 7 6 5 8 9 12 7 12 9 10 4 8 11 10 20 18 21 18 15 4 360 3 7 4 5 315 318 355 352 351
353 348 360 2 1 7 4 8 11 15 18 16 15 12 10 8 3 3 5 6 8 6 2 8 1 356 356 8 26 26 13 16 8 4 2 355 343 356 346 340 342 318 343 345 347
348 351 1 5 355 356 360 1 7 6 8 6 6 11 11 6 1 3 3 4 3 4 360 3 359 351 356 10 18 6 5 4 1 358 348 349 351 5 5 5 359 332 328 329 334
348 343 352 2 4 356 351 354 354 5 3 8 5 6 4 1 4 356 353 358 356 353 354 356 351 348 343 346 352 342 339 340 336 336 335 315 313 321 334 332 332 319 314 310 317
346 344 351 340 347 352 353 348 346 348 360 1 358 357 356 351 350 353 353 349 351 354 1 356 344 343 335 335 334 324 320 327 321 310 317 312 321 316 327 316 304 308 301 306 309
339 340 345 341 344 344 346 343 343 345 347 347 346 348 348 343 344 338 341 344 344 351 354 352 342 345 338 337 340 335 328 330 324 321 315 309 309 328 333 337 335 325 288 301 309
344 345 340 337 338 336 338 340 340 345 345 345 342 338 334 334 338 336 335 332 327 333 338 340 342 343 342 350 344 344 353 346 349 347 342 335 336 339 338 337 338 336 326 315 326